Location: Naloco
(16.5478°S, 37.1017°E)
Time: 01:10:49
(UTC+00:00)

BREEZE-M DEB (TANK) - Pass Details

Date: 13 August 2020
Orbit: 340 x 14770 km, 49.6° (Epoch: 22 September)

Event Time Altitude Azimuth Distance (km) Brightness Sun altitude
Rises 16:25:01 0° 318° (NW) 2,651 7.2 -15.4°
Reaches altitude 10° 16:27:23 10° 316° (NW) 1,418 5.7 -16.0°
Maximum altitude 16:29:55 76° 230° (SW) 354 1.9 -16.6°
Enters shadow 16:30:31 45° 154° (SSE) 482 2.2 -16.7°
